• In United Kingdom
  • List of Countries
  • For 7 days
  • Water Temperature
  • Satellite Maps
  • Weather Map
  • Weather Widgets
  • user-avatar
    Login

    Hourly Weather Korçe

    Today, 23 November, Thursday

    Time Temperature Precipitation Wind Pressure Humidity
    00:00 +3°C° 0 mm 1 mps 668 mmHg 73%
    01:00 +3°C° 0 mm 1 mps 668 mmHg 72%
    02:00 +3°C° 0 mm 1 mps 668 mmHg 71%
    03:00 +3°C° 0 mm 1 mps 668 mmHg 70%
    04:00 +3°C° 0 mm 1 mps 667 mmHg 70%
    05:00 +3°C° 0 mm 1 mps 668 mmHg 69%
    06:00 +3°C° 0 mm 1 mps 668 mmHg 68%
    07:00 +3°C° 0 mm 1 mps 668 mmHg 66%
    08:00 +5°C° 0 mm 1 mps 669 mmHg 61%
    09:00 +7°C° 0 mm 1 mps 669 mmHg 55%
    10:00 +9°C° 0 mm 1 mps 670 mmHg 50%
    11:00 +10°C° 0 mm 1 mps 670 mmHg 49%
    12:00 +11°C° 0 mm 1 mps 670 mmHg 49%
    13:00 +11°C° 0 mm 1 mps 670 mmHg 47%
    14:00 +10°C° 0 mm 1 mps 669 mmHg 53%
    15:00 +9°C° 0 mm 1 mps 669 mmHg 59%
    16:00 +8°C° 0 mm 1 mps 668 mmHg 65%
    17:00 +7°C° 0 mm 1 mps 668 mmHg 67%
    18:00 +6°C° 0 mm 1 mps 668 mmHg 70%
    19:00 +4°C° 0 mm 0 mps 668 mmHg 73%
    20:00 +4°C° 0 mm 0 mps 668 mmHg 73%
    21:00 +5°C° 0 mm 1 mps 669 mmHg 72%
    22:00 +4°C° 0 mm 1 mps 669 mmHg 72%
    23:00 +4°C° 0 mm 1 mps 669 mmHg 72%

    Tomorrow, 24 November, Friday

    Time Temperature Precipitation Wind Pressure Humidity
    00:00 +4°C° 0 mm 1 mps 668 mmHg 71%
    01:00 +4°C° 0 mm 1 mps 668 mmHg 70%
    02:00 +4°C° 0 mm 1 mps 668 mmHg 70%
    03:00 +4°C° 0 mm 1 mps 668 mmHg 69%
    04:00 +3°C° 0 mm 1 mps 668 mmHg 69%
    05:00 +3°C° 0 mm 1 mps 668 mmHg 69%
    06:00 +3°C° 0 mm 1 mps 668 mmHg 68%
    07:00 +3°C° 0 mm 1 mps 668 mmHg 68%
    08:00 +5°C° 0 mm 1 mps 669 mmHg 63%
    09:00 +8°C° 0 mm 1 mps 669 mmHg 58%
    10:00 +10°C° 0 mm 1 mps 670 mmHg 53%
    11:00 +10°C° 0 mm 1 mps 670 mmHg 53%
    12:00 +11°C° 0 mm 1 mps 670 mmHg 53%
    13:00 +11°C° 0 mm 1 mps 670 mmHg 53%
    14:00 +10°C° 0 mm 1 mps 669 mmHg 60%
    15:00 +9°C° 0 mm 1 mps 669 mmHg 67%
    16:00 +8°C° 0 mm 1 mps 669 mmHg 73%
    17:00 +7°C° 0 mm 1 mps 669 mmHg 77%
    18:00 +6°C° 0 mm 1 mps 669 mmHg 80%
    19:00 +5°C° 0 mm 1 mps 668 mmHg 83%
    20:00 +5°C° 0 mm 1 mps 668 mmHg 83%
    21:00 +4°C° 0 mm 1 mps 668 mmHg 84%
    22:00 +4°C° 0 mm 1 mps 668 mmHg 84%
    23:00 +4°C° 0 mm 1 mps 668 mmHg 83%

    Day after tomorrow, 25 November, Saturday

    Time Temperature Precipitation Wind Pressure Humidity
    00:00 +4°C° 0 mm 1 mps 668 mmHg 83%
    01:00 +4°C° 0 mm 1 mps 668 mmHg 82%
    02:00 +3°C° 0 mm 1 mps 668 mmHg 82%
    03:00 +3°C° 0 mm 1 mps 668 mmHg 81%
    04:00 +3°C° 0 mm 1 mps 668 mmHg 81%
    05:00 +3°C° 0 mm 1 mps 668 mmHg 80%
    06:00 +3°C° 0 mm 1 mps 668 mmHg 80%
    07:00 +3°C° 0 mm 1 mps 668 mmHg 79%
    08:00 +5°C° 0 mm 1 mps 668 mmHg 72%
    09:00 +7°C° 0 mm 1 mps 669 mmHg 64%
    10:00 +9°C° 0 mm 1 mps 669 mmHg 57%
    11:00 +9°C° 0 mm 1 mps 669 mmHg 55%
    12:00 +10°C° 0 mm 1 mps 669 mmHg 53%
    13:00 +11°C° 0 mm 1 mps 669 mmHg 51%
    14:00 +9°C° 0 mm 1 mps 668 mmHg 57%
    15:00 +8°C° 0 mm 1 mps 668 mmHg 63%
    16:00 +7°C° 0 mm 1 mps 667 mmHg 69%
    17:00 +6°C° 0 mm 1 mps 667 mmHg 73%
    18:00 +6°C° 0 mm 1 mps 667 mmHg 77%
    19:00 +5°C° 0 mm 1 mps 667 mmHg 82%
    20:00 +4°C° 0 mm 1 mps 667 mmHg 83%
    21:00 +4°C° 0 mm 1 mps 667 mmHg 85%
    22:00 +4°C° 0 mm 1 mps 667 mmHg 86%
    23:00 +4°C° 0 mm 1 mps 667 mmHg 87%

    26 November, Sunday

    Time Temperature Precipitation Wind Pressure Humidity
    00:00 +3°C° 0 mm 2 mps 667 mmHg 87%
    01:00 +2°C° 0 mm 2 mps 667 mmHg 88%
    02:00 +2°C° 0 mm 2 mps 667 mmHg 87%
    03:00 +2°C° 0 mm 2 mps 666 mmHg 87%
    04:00 +2°C° 0 mm 2 mps 666 mmHg 87%
    05:00 +2°C° 0 mm 2 mps 666 mmHg 86%
    06:00 +2°C° 0 mm 2 mps 666 mmHg 85%
    07:00 +2°C° 0 mm 2 mps 666 mmHg 84%
    08:00 +4°C° 0 mm 2 mps 667 mmHg 78%
    09:00 +6°C° 0 mm 2 mps 667 mmHg 72%
    10:00 +8°C° 0 mm 2 mps 667 mmHg 66%
    11:00 +9°C° 0 mm 3 mps 667 mmHg 66%
    12:00 +10°C° 0 mm 3 mps 667 mmHg 66%
    13:00 +10°C° 0 mm 3 mps 666 mmHg 66%
    14:00 +9°C° 0 mm 3 mps 666 mmHg 72%
    15:00 +8°C° 0 mm 3 mps 665 mmHg 78%
    16:00 +7°C° 0 mm 2 mps 665 mmHg 83%
    17:00 +7°C° 0.3 mm 3 mps 664 mmHg 86%
    18:00 +5°C° 0.3 mm 3 mps 664 mmHg 89%
    19:00 +5°C° 0.3 mm 3 mps 664 mmHg 91%
    20:00 +5°C° 1.1 mm 3 mps 664 mmHg 92%
    21:00 +5°C° 1.1 mm 2 mps 664 mmHg 92%
    22:00 +5°C° 1.1 mm 2 mps 664 mmHg 93%
    23:00 +5°C° 1.4 mm 2 mps 663 mmHg 93%

    27 November, Monday

    Time Temperature Precipitation Wind Pressure Humidity
    00:00 +6°C° 1.4 mm 1 mps 663 mmHg 94%
    01:00 +6°C° 1.4 mm 1 mps 662 mmHg 94%
    02:00 +6°C° 0.5 mm 1 mps 662 mmHg 94%
    03:00 +6°C° 0.5 mm 1 mps 662 mmHg 94%
    04:00 +6°C° 0.5 mm 1 mps 662 mmHg 94%
    05:00 +6°C° 0.2 mm 1 mps 662 mmHg 94%
    06:00 +5°C° 0.2 mm 1 mps 662 mmHg 94%
    07:00 +5°C° 0.2 mm 1 mps 662 mmHg 94%
    08:00 +5°C° 0.5 mm 2 mps 662 mmHg 90%
    09:00 +5°C° 0.5 mm 2 mps 662 mmHg 87%
    10:00 +6°C° 0.5 mm 2 mps 663 mmHg 83%
    11:00 +5°C° 0.8 mm 3 mps 663 mmHg 81%
    12:00 +4°C° 0.8 mm 3 mps 662 mmHg 79%
    13:00 +4°C° 0.8 mm 3 mps 662 mmHg 77%
    14:00 +4°C° 0.2 mm 3 mps 662 mmHg 78%
    15:00 +3°C° 0.2 mm 3 mps 663 mmHg 78%
    16:00 +4°C° 0.2 mm 2 mps 663 mmHg 79%
    17:00 +3°C° 0 mm 2 mps 663 mmHg 80%
    18:00 +2°C° 0 mm 2 mps 663 mmHg 82%
    19:00 +2°C° 0 mm 2 mps 663 mmHg 83%
    20:00 +1°C° 0 mm 2 mps 663 mmHg 83%
    21:00 +1°C° 0 mm 2 mps 663 mmHg 84%
    22:00 -1°C° 0 mm 2 mps 663 mmHg 84%
    23:00 -1°C° 0 mm 2 mps 663 mmHg 84%

    28 November, Tuesday

    Time Temperature Precipitation Wind Pressure Humidity
    00:00 -1°C° 0 mm 2 mps 663 mmHg 84%
    01:00 -1°C° 0 mm 2 mps 663 mmHg 84%
    02:00 -2°C° 0 mm 2 mps 663 mmHg 84%
    03:00 -2°C° 0 mm 2 mps 663 mmHg 83%
    04:00 -2°C° 0 mm 2 mps 663 mmHg 83%
    05:00 0°C° 0 mm 1 mps 663 mmHg 82%
    06:00 0°C° 0 mm 1 mps 663 mmHg 82%
    07:00 0°C° 0 mm 1 mps 663 mmHg 81%
    08:00 -1°C° 0 mm 2 mps 664 mmHg 74%
    09:00 +2°C° 0 mm 2 mps 664 mmHg 67%
    10:00 +3°C° 0 mm 2 mps 665 mmHg 60%
    11:00 +4°C° 0 mm 2 mps 665 mmHg 58%
    12:00 +4°C° 0 mm 2 mps 664 mmHg 56%
    13:00 +5°C° 0 mm 2 mps 664 mmHg 54%
    14:00 +4°C° 0 mm 2 mps 664 mmHg 59%
    15:00 +3°C° 0 mm 2 mps 664 mmHg 64%
    16:00 +2°C° 0 mm 2 mps 664 mmHg 69%
    17:00 +1°C° 0 mm 2 mps 664 mmHg 72%
    18:00 +1°C° 0 mm 1 mps 664 mmHg 74%
    19:00 0°C° 0 mm 1 mps 664 mmHg 77%
    20:00 0°C° 0 mm 1 mps 664 mmHg 77%
    21:00 0°C° 0 mm 1 mps 664 mmHg 77%
    22:00 0°C° 0 mm 1 mps 665 mmHg 77%
    23:00 0°C° 0 mm 1 mps 665 mmHg 77%
    Show more